| time (UTC) | temp F | wind direction | speed MPH | gust MPH | rain 1hr in | rain 24hr in | rain mn in | humidity % | barometer mb |
| 20260506005016 | 59 | 292 | 0.0 | 2.0 | 0.04 | 0.45 | 0.45 | 99 | 1002.4 |
| 20260506004039 | 59 | 0.0 | 0.0 | 0.01 | 0.42 | 0.42 | 99 | 1002.2 | |
| 20260506003101 | 59 | 0.0 | 0.0 | 0.00 | 0.41 | 0.41 | 99 | 1001.9 | |
| 20260506002024 | 59 | 0.0 | 0.0 | 0.02 | 0.41 | 0.41 | 99 | 1001.9 | |
| 20260506001029 | 59 | 0.0 | 0.0 | 0.03 | 0.41 | 0.41 | 99 | 1001.9 | |
| 20260506000031 | 60 | 0.0 | 0.0 | 0.02 | 0.40 | 0.40 | 99 | 1001.8 | |
| 20260505235016 | 60 | 0.0 | 0.0 | 0.02 | 0.40 | 0.40 | 99 | 1001.9 | |
| 20260505234019 | 60 | 0.0 | 0.0 | 0.02 | 0.40 | 0.40 | 99 | 1001.9 | |
| 20260505233022 | 60 | 0.0 | 1.0 | 0.02 | 0.40 | 0.40 | 99 | 1002.4 | |
| 20260505232026 | 61 | 0.0 | 1.0 | 0.00 | 0.39 | 0.39 | 99 | 1002.3 | |
| 20260505231029 | 61 | 57 | 0.0 | 3.0 | 0.00 | 0.38 | 0.38 | 99 | 1002.3 |
| 20260505230057 | 61 | 130 | 0.0 | 2.0 | 0.00 | 0.38 | 0.38 | 99 | 1002.3 |
| 20260505225017 | 61 | 90 | 0.0 | 2.0 | 0.00 | 0.38 | 0.38 | 99 | 1002.6 |
| 20260505224020 | 61 | 0.0 | 0.0 | 0.00 | 0.38 | 0.38 | 99 | 1002.7 | |
| 20260505223043 | 61 | 112 | 0.0 | 2.0 | 0.00 | 0.38 | 0.38 | 99 | 1002.8 |
| 20260505222026 | 61 | 28 | 0.0 | 2.0 | 0.00 | 0.38 | 0.38 | 99 | 1003.0 |
| 20260505221029 | 61 | 243 | 0.0 | 3.0 | 0.00 | 0.38 | 0.38 | 99 | 1003.1 |
| 20260505220032 | 61 | 0.0 | 0.0 | 0.02 | 0.38 | 0.38 | 99 | 1003.2 | |
| 20260505215017 | 61 | 78 | 0.0 | 3.0 | 0.02 | 0.38 | 0.38 | 99 | 1003.3 |
| 20260505214021 | 61 | 37 | 1.0 | 2.0 | 0.02 | 0.38 | 0.38 | 99 | 1003.3 |
| 20260505213104 | 61 | 0.0 | 0.0 | 0.03 | 0.38 | 0.38 | 99 | 1003.2 | |
| 20260505212020 | 61 | 137 | 0.0 | 2.0 | 0.06 | 0.38 | 0.38 | 99 | 1003.3 |
| 20260505211018 | 61 | 157 | 0.0 | 2.0 | 0.06 | 0.37 | 0.37 | 99 | 1003.3 |
| 20260505210053 | 61 | 135 | 0.0 | 2.0 | 0.06 | 0.36 | 0.36 | 99 | 1003.3 |
| 20260505205017 | 61 | 0.0 | 0.0 | 0.06 | 0.36 | 0.36 | 99 | 1003.3 | |
| 20260505204020 | 61 | 178 | 1.0 | 3.0 | 0.07 | 0.36 | 0.36 | 99 | 1003.4 |
| 20260505203023 | 62 | 207 | 2.0 | 5.0 | 0.09 | 0.34 | 0.34 | 99 | 1003.5 |
| 20260505202026 | 62 | 204 | 0.0 | 3.0 | 0.12 | 0.32 | 0.32 | 97 | 1003.5 |
| 20260505201030 | 62 | 189 | 1.0 | 4.0 | 0.19 | 0.31 | 0.31 | 97 | 1003.6 |
| 20260505200015 | 62 | 180 | 0.0 | 1.0 | 0.18 | 0.30 | 0.30 | 97 | 1003.7 |
| 20260505195018 | 62 | 166 | 1.0 | 4.0 | 0.18 | 0.30 | 0.30 | 96 | 1003.8 |
| 20260505194021 | 62 | 0.0 | 0.0 | 0.16 | 0.28 | 0.28 | 95 | 1004.1 | |
| 20260505193025 | 62 | 163 | 1.0 | 3.0 | 0.13 | 0.25 | 0.25 | 94 | 1004.1 |
| 20260505192029 | 63 | 175 | 6.0 | 10.0 | 0.07 | 0.19 | 0.19 | 89 | 1003.7 |
| 20260505191031 | 67 | 205 | 3.0 | 5.0 | 0.00 | 0.12 | 0.12 | 79 | 1003.6 |
| 20260505190017 | 68 | 181 | 1.0 | 3.0 | 0.00 | 0.12 | 0.12 | 75 | 1003.5 |
| 20260505185019 | 68 | 178 | 1.0 | 4.0 | 0.00 | 0.12 | 0.12 | 75 | 1003.5 |
| 20260505184023 | 68 | 196 | 1.0 | 4.0 | 0.00 | 0.12 | 0.12 | 75 | 1003.7 |
| 20260505183026 | 68 | 148 | 2.0 | 5.0 | 0.00 | 0.12 | 0.12 | 75 | 1003.7 |
| 20260505182029 | 68 | 134 | 1.0 | 5.0 | 0.00 | 0.12 | 0.12 | 74 | 1004.0 |
| 20260505181026 | 68 | 11 | 1.0 | 4.0 | 0.00 | 0.12 | 0.12 | 74 | 1004.1 |
| 20260505180017 | 68 | 147 | 2.0 | 5.0 | 0.00 | 0.12 | 0.12 | 73 | 1004.3 |
| 20260505175021 | 68 | 68 | 0.0 | 3.0 | 0.00 | 0.12 | 0.12 | 74 | 1004.1 |
| 20260505174018 | 68 | 112 | 0.0 | 2.0 | 0.00 | 0.12 | 0.12 | 74 | 1004.1 |
| 20260505173015 | 67 | 96 | 1.0 | 3.0 | 0.00 | 0.12 | 0.12 | 74 | 1004.3 |
| 20260505172050 | 67 | 179 | 2.0 | 5.0 | 0.00 | 0.12 | 0.12 | 74 | 1004.4 |
| 20260505171015 | 66 | 194 | 1.0 | 3.0 | 0.00 | 0.12 | 0.12 | 74 | 1004.3 |
| 20260505170019 | 66 | 148 | 2.0 | 4.0 | 0.00 | 0.12 | 0.12 | 74 | 1004.3 |
| 20260505165041 | 66 | 126 | 1.0 | 3.0 | 0.00 | 0.12 | 0.12 | 76 | 1004.4 |
| 20260505164025 | 66 | 112 | 0.0 | 1.0 | 0.00 | 0.12 | 0.12 | 77 | 1004.3 |
| 20260505163048 | 66 | 196 | 1.0 | 5.0 | 0.00 | 0.12 | 0.12 | 76 | 1004.5 |
| 20260505162051 | 66 | 114 | 1.0 | 2.0 | 0.00 | 0.12 | 0.12 | 76 | 1004.4 |
| 20260505161037 | 66 | 95 | 2.0 | 5.0 | 0.00 | 0.12 | 0.12 | 76 | 1004.4 |
| 20260505153028 | 66 | 60 | 1.0 | 4.0 | 0.00 | 0.12 | 0.12 | 79 | 1004.1 |
| 20260505152032 | 66 | 153 | 1.0 | 4.0 | 0.00 | 0.12 | 0.12 | 79 | 1004.1 |
| 20260505151015 | 67 | 138 | 1.0 | 3.0 | 0.00 | 0.12 | 0.12 | 80 | 1004.2 |
| 20260505125024 | 59 | 0.0 | 0.0 | 0.00 | 0.12 | 0.12 | 99 | 1003.8 | |
| 20260505124027 | 59 | 0.0 | 0.0 | 0.00 | 0.12 | 0.12 | 99 | 1003.9 | |
| 20260505123030 | 58 | 45 | 0.0 | 1.0 | 0.00 | 0.12 | 0.12 | 99 | 1004.2 |
| 20260505122053 | 58 | 0.0 | 0.0 | 0.00 | 0.12 | 0.12 | 99 | 1004.2 | |
| 20260505121017 | 57 | 0.0 | 0.0 | 0.00 | 0.12 | 0.12 | 99 | 1004.3 | |
| 20260505120020 | 57 | 0.0 | 0.0 | 0.00 | 0.12 | 0.12 | 99 | 1004.4 | |
| 20260505115023 | 57 | 0.0 | 0.0 | 0.00 | 0.12 | 0.12 | 99 | 1004.1 | |
| 20260505114047 | 57 | 0.0 | 1.0 | 0.01 | 0.12 | 0.12 | 99 | 1004.0 | |
| 20260505113050 | 57 | 161 | 0.0 | 2.0 | 0.01 | 0.12 | 0.12 | 99 | 1003.6 |
| 20260505112015 | 56 | 66 | 0.0 | 2.0 | 0.00 | 0.11 | 0.11 | 99 | 1003.0 |
| 20260505111018 | 56 | 30 | 0.0 | 2.0 | 0.03 | 0.11 | 0.11 | 99 | 1003.1 |
| 20260505102017 | 57 | 168 | 0.0 | 1.0 | 0.10 | 0.10 | 0.10 | 97 | 1004.6 |
| 20260505101020 | 58 | 192 | 2.0 | 5.0 | 0.08 | 0.08 | 0.08 | 96 | 1004.6 |
| 20260505100046 | 58 | 200 | 2.0 | 4.0 | 0.04 | 0.04 | 0.04 | 95 | 1004.7 |
| 20260505095026 | 0 | 0.0 | 0.0 | 0.02 | 0.02 | 0.02 | 1004.7 | ||
| 20260505094029 | 59 | 247 | 3.0 | 5.0 | 0.01 | 0.01 | 0.01 | 89 | 1004.2 |
| 20260505093032 | 61 | 206 | 3.0 | 7.0 | 0.00 | 0.00 | 0.00 | 82 | 1003.7 |
| 20260505092017 | 62 | 263 | 2.0 | 3.0 | 0.00 | 0.00 | 0.00 | 74 | 1003.5 |
| 20260505091020 | 62 | 217 | 0.0 | 3.0 | 0.00 | 0.00 | 0.00 | 70 | 1003.2 |
| 20260505090024 | 62 | 201 | 0.0 | 1.0 | 0.00 | 0.00 | 0.00 | 70 | 1002.9 |
| 20260505085026 | 62 | 0.0 | 0.0 | 0.00 | 0.00 | 0.00 | 69 | 1002.8 | |
| 20260505084029 | 63 | 157 | 0.0 | 1.0 | 0.00 | 0.00 | 0.00 | 69 | 1002.7 |
| 20260505083032 | 63 | 134 | 0.0 | 2.0 | 0.00 | 0.00 | 0.00 | 69 | 1002.3 |
| 20260505082038 | 63 | 0.0 | 1.0 | 0.00 | 0.00 | 0.00 | 68 | 1002.0 | |
| 20260505081020 | 64 | 171 | 1.0 | 2.0 | 0.00 | 0.00 | 0.00 | 67 | 1002.1 |
| 20260505080023 | 64 | 191 | 0.0 | 1.0 | 0.00 | 0.00 | 0.00 | 66 | 1002.3 |
| 20260505075027 | 64 | 160 | 1.0 | 6.0 | 0.00 | 0.00 | 0.00 | 65 | 1002.3 |
| 20260505074024 | 64 | 195 | 2.0 | 6.0 | 0.00 | 0.00 | 0.00 | 65 | 1002.1 |
| 20260505073015 | 64 | 213 | 1.0 | 3.0 | 0.00 | 0.00 | 0.00 | 65 | 1001.8 |
| 20260505072039 | 65 | 101 | 2.0 | 4.0 | 0.00 | 0.00 | 0.00 | 65 | 1001.8 |
| 20260505071016 | 65 | 275 | 2.0 | 6.0 | 0.00 | 0.00 | 0.00 | 64 | 1001.8 |
| 20260505070026 | 64 | 265 | 1.0 | 3.0 | 0.00 | 0.00 | 0.00 | 65 | 1001.8 |
| 20260505065028 | 64 | 197 | 2.0 | 4.0 | 0.00 | 0.00 | 0.00 | 65 | 1001.8 |
| 20260505064051 | 65 | 232 | 1.0 | 3.0 | 0.00 | 0.00 | 0.00 | 64 | 1001.8 |
| 20260505063016 | 65 | 185 | 2.0 | 6.0 | 0.00 | 0.00 | 0.00 | 64 | 1001.7 |
| 20260505062040 | 65 | 35 | 2.0 | 3.0 | 0.00 | 0.00 | 0.00 | 64 | 1001.6 |
| 20260505061023 | 65 | 90 | 2.0 | 6.0 | 0.00 | 0.00 | 0.00 | 64 | 1001.5 |
| 20260505060026 | 65 | 147 | 2.0 | 8.0 | 0.00 | 0.00 | 0.00 | 64 | 1001.5 |
| 20260505055028 | 65 | 219 | 1.0 | 4.0 | 0.00 | 0.00 | 0.00 | 64 | 1001.3 |
| 20260505054031 | 66 | 70 | 2.0 | 8.0 | 0.00 | 0.00 | 0.00 | 63 | 1001.2 |
| 20260505053017 | 66 | 218 | 1.0 | 4.0 | 0.00 | 0.00 | 0.00 | 62 | 1001.2 |
| 20260505052039 | 66 | 77 | 2.0 | 5.0 | 0.00 | 0.00 | 0.00 | 62 | 1001.2 |
| 20260505051023 | 66 | 139 | 1.0 | 3.0 | 0.00 | 0.00 | 0.00 | 62 | 1001.3 |
| 20260505041023 | 67 | 27 | 2.0 | 3.0 | 0.00 | 0.00 | 0.00 | 63 | 1001.8 |
| 20260505040021 | 67 | 78 | 2.0 | 4.0 | 0.00 | 0.00 | 0.00 | 63 | 1001.9 |
| 20260505035018 | 67 | 152 | 2.0 | 4.0 | 0.00 | 0.00 | 0.00 | 63 | 1002.0 |
| 20260505034036 | 66 | 115 | 1.0 | 3.0 | 0.00 | 0.00 | 0.00 | 65 | 1001.9 |
| 20260505033019 | 66 | 105 | 1.0 | 6.0 | 0.00 | 0.00 | 0.00 | 65 | 1001.8 |
| 20260505032042 | 66 | 146 | 1.0 | 2.0 | 0.00 | 0.00 | 0.00 | 66 | 1001.9 |
| 20260505031025 | 66 | 79 | 1.0 | 2.0 | 0.00 | 0.00 | 0.00 | 67 | 1001.7 |
| 20260505030028 | 65 | 28 | 0.0 | 2.0 | 0.00 | 0.00 | 0.00 | 67 | 1001.6 |
| 20260505025151 | 65 | 194 | 1.0 | 4.0 | 0.00 | 0.00 | 0.00 | 68 | 1001.4 |
| 20260505024016 | 65 | 32 | 0.0 | 1.0 | 0.00 | 0.00 | 0.00 | 68 | 1001.6 |
| 20260505023019 | 65 | 0.0 | 0.0 | 0.00 | 0.00 | 0.00 | 69 | 1001.3 | |
| 20260505022023 | 65 | 233 | 0.0 | 3.0 | 0.00 | 0.00 | 0.00 | 68 | 1001.0 |
| 20260505021025 | 65 | 270 | 0.0 | 1.0 | 0.00 | 0.00 | 0.00 | 68 | 1000.9 |
| 20260505020028 | 65 | 0.0 | 0.0 | 0.00 | 0.00 | 0.00 | 68 | 1000.7 | |
| 20260505015032 | 66 | 286 | 0.0 | 1.0 | 0.00 | 0.00 | 0.00 | 67 | 1000.7 |
| 20260505014037 | 66 | 0.0 | 0.0 | 0.00 | 0.00 | 0.00 | 66 | 1000.5 | |
| 20260505013040 | 67 | 0.0 | 0.0 | 0.00 | 0.00 | 0.00 | 65 | 1000.3 | |
| 20260505012023 | 67 | 157 | 0.0 | 1.0 | 0.00 | 0.00 | 0.00 | 64 | 1000.6 |
| 20260505011026 | 68 | 136 | 1.0 | 4.0 | 0.00 | 0.00 | 0.00 | 64 | 1000.6 |
| 20260505010050 | 68 | 199 | 0.0 | 3.0 | 0.00 | 0.00 | 0.00 | 62 | 1000.5 |